Location: São Paulo
(23.5507°S, 46.6334°W)
Time: 08:12:35
(UTC-03:00)

Vanguard 2 Rocket - Pass Details

Date: 25 February 2026
Orbit: 553 x 3286 km, 32.9° (Epoch: 7 March)

Event Time Altitude Azimuth Distance (km) Brightness Sun altitude
Exits shadow 04:40:26 18° 251° (WSW) 2,568 8.7 -18.5°
Maximum altitude 04:46:36 75° 333° (NNW) 1,667 8.0 -17.1°
Drops below altitude 10° 05:00:22 10° 56° (NE) 5,187 11.3 -14.1°
Sets 05:05:19 0° 57° (ENE) 6,568 11.9 -13.0°
